Location: Unspecified
(51.5147°N, 7.4673°E)
Time: 00:22:49
(UTC+01:00)

Transit 4A - Visible Passes

Search period start: 17 February 2026 00:00
Search period end: 27 February 2026 00:00
Orbit: 865 x 976 km, 66.8° (Epoch: 16 February)

Date Brightness Start Highest point End Pass type
(mag) Time Alt. Az. Time Alt. Az. Time Alt. Az.
17 Feb 10.1 03:10:47 16° E 03:10:47 16° E 03:13:50 10° ENE visible
17 Feb 7.8 04:54:17 54° SSW 04:55:38 77° SE 05:01:42 10° NE visible
17 Feb 8.7 06:37:47 13° W 06:42:32 34° NNW 06:48:03 10° NNE visible
18 Feb 9.8 03:19:40 22° E 03:19:40 22° E 03:23:19 10° ENE visible
18 Feb 7.7 05:03:09 58° SW 05:04:23 81° NW 05:10:30 10° NE visible
18 Feb 8.9 06:46:38 11° W 06:51:37 28° NNW 06:56:52 10° NNE visible
19 Feb 9.4 03:28:28 29° E 03:28:28 29° E 03:32:29 10° NE visible
19 Feb 7.9 05:11:57 51° W 05:13:13 63° NW 05:19:17 10° NE visible
19 Feb 9.1 06:55:54 10° WNW 07:00:45 25° NNW 07:05:43 10° NNE visible
20 Feb 9.0 03:37:12 38° E 03:37:12 38° E 03:41:29 10° NE visible
20 Feb 8.2 05:20:41 41° W 05:22:07 49° NW 05:28:03 10° NNE visible
21 Feb 8.7 03:45:53 47° ENE 03:45:53 47° ENE 03:50:23 10° NE visible
21 Feb 8.5 05:29:21 32° WNW 05:31:05 39° NW 05:36:48 10° NNE visible
22 Feb 10.5 02:11:02 12° ENE 02:11:02 12° ENE 02:11:34 10° ENE visible
22 Feb 8.4 03:54:31 55° NE 03:54:31 55° NE 03:59:13 10° NE visible
22 Feb 8.8 05:37:59 26° WNW 05:40:07 32° NNW 05:45:35 10° NNE visible
23 Feb 10.3 02:19:37 15° ENE 02:19:37 15° ENE 02:20:56 10° NE visible
23 Feb 8.2 04:03:06 58° NNE 04:03:06 58° NNE 04:08:01 10° NE visible
23 Feb 9.0 05:46:34 20° WNW 05:49:11 27° NNW 05:54:24 10° NNE visible
24 Feb 10.1 02:28:11 19° ENE 02:28:11 19° ENE 02:30:04 10° NE visible
24 Feb 8.3 04:11:39 53° N 04:11:39 53° N 04:16:47 10° NE visible
24 Feb 9.3 05:55:07 16° WNW 05:58:20 24° NNW 06:03:16 10° NNE visible
25 Feb 9.8 02:36:43 23° NE 02:36:43 23° NE 02:39:02 10° NE visible
25 Feb 8.4 04:20:11 45° NNW 04:20:11 45° NNW 04:25:33 10° NNE visible
25 Feb 9.4 06:03:38 12° WNW 06:07:32 22° NNW 06:12:12 10° NE visible
26 Feb 9.6 02:45:12 27° NE 02:45:12 27° NE 02:47:55 10° NE visible
26 Feb 8.6 04:28:40 37° NW 04:28:40 37° NW 04:34:19 10° NNE visible
26 Feb 9.6 06:12:20 10° NW 06:16:44 20° N 06:21:14 10° NE visible
